[[{"header":{"parameterUnit":"m.s-1","parameterCategory":1,"la1":30.2991,"la2":30.254,"lo1":-89.0895,"lo2":-89.0444,"dy":0.0017,"dx":0.0017,"nx":28,"ny":28,"refTime":"2023-08-19T09:00:00:Z","depth":0,"parameterNumber":2,"parameterNumberName":"U-component_of_WINDS"},"data":[0,0,0,0,0,0,0,0,0,0,0,0,0,0,0,0,0,0,0,0,0,0,0,0,0,0,0,0,0,0,0,0,0,0,0,0,0,0,0,0,0,0,0,0,0,0,0,0,0,0,0,0,0,0,0,0,0,0,1.6453,1.6453,0,1.6402,1.6401,1.6401,1.6317,1.6315,1.6314,1.6312,1.6262,1.6262,1.6262,0,0,0,0,0,0,0,0,0,0,0,0,0,1.648,1.648,1.6453,1.6452,1.6452,1.6402,1.6401,1.6401,1.6317,1.6315,1.6313,1.6311,1.6262,1.6262,1.6262,0,0,0,0,0,0,0,0,0,0,0,0,0,1.6453,1.648,1.6453,1.6404,1.6399,1.6402,1.6401,1.64,1.6317,1.6315,1.6313,1.631,1.6262,1.6262,1.6262,1.6309,0,0,1.6262,1.6262,0,0,0,0,0,0,0,0,1.6454,1.6452,1.6412,1.6407,1.6402,1.6363,1.6392,1.637,1.6318,1.6348,1.6312,1.6309,1.6297,1.6294,1.629,1.6307,1.6305,1.6262,1.6262,1.6262,1.6263,0,0,0,0,0,0,0,1.6456,1.6453,1.6433,1.6411,1.6405,1.6385,1.6379,1.6387,1.6337,1.6346,1.6339,1.6334,1.6294,1.629,1.6288,1.6304,1.6262,1.6262,1.6263,1.6263,1.6355,1.6357,0,0,0,0,0,0,1.6465,1.6456,1.6434,1.6431,1.6423,1.6386,1.6379,1.6378,1.6336,1.6328,1.6336,1.6331,1.6291,1.6288,1.6286,1.6336,1.6262,1.6263,1.6263,1.6353,1.6356,1.6358,0,0,0,0,0,0,1.6466,1.6464,1.6437,1.6442,1.6437,1.6388,1.6388,1.6378,1.6374,1.6329,1.632,1.6341,1.6289,1.6286,1.6303,1.6334,1.6263,1.6263,1.635,1.6354,1.6357,1.6439,0,0,0,0,0,0,1.6467,1.6465,1.6482,1.6443,1.6437,1.6454,1.639,1.6379,1.6374,1.6366,1.6331,1.6323,1.6287,1.6304,1.6304,1.6332,1.6263,1.6347,1.6352,1.6356,1.6433,1.6445,1.6455,0,0,0,0,0,1.6468,1.6508,1.6483,1.6481,1.6457,1.6456,1.6453,1.6409,1.6377,1.6394,1.6365,1.6325,1.6331,1.6306,1.6305,1.6335,1.6345,1.635,1.6355,1.6429,1.6443,1.6455,0,0,0,0,0,0,1.6553,1.6502,1.6474,1.6502,1.6484,1.6442,1.6462,1.6426,1.6418,1.641,1.6358,1.6351,1.6375,1.6357,1.633,1.6378,1.6332,1.6337,1.6388,1.6401,1.6411,1.6414,1.6263,0,0,0,0,0,1.6575,1.6578,1.6534,1.6563,1.6555,1.6511,1.6509,1.6477,1.6456,1.6448,1.6421,1.6403,1.6401,1.64,1.6396,1.6432,1.6422,1.6452,1.6462,1.6471,1.6476,1.6491,1.6503,1.6376,1.6376,1.6375,0,0,1.662,1.6593,1.6598,1.6579,1.6561,1.6566,1.6505,1.6512,1.6515,1.645,1.6463,1.6443,1.642,1.6446,1.6456,1.6432,1.6509,1.6478,1.6486,1.6485,1.6498,1.651,1.652,1.6379,1.6379,1.6378,0,0,1.6704,1.6685,1.6705,1.6689,1.6662,1.6632,1.6638,1.6601,1.6584,1.6598,1.6548,1.6551,1.6549,1.6533,1.6525,1.6604,1.6565,1.6604,1.6659,1.6675,1.6685,1.6693,1.6718,1.6728,1.6609,1.661,1.661,0,1.6763,1.6767,1.6721,1.6731,1.6723,1.6664,1.6685,1.6671,1.6646,1.6642,1.6615,1.661,1.659,1.6611,1.663,1.6626,1.6629,1.6606,1.6687,1.6695,1.6702,1.6726,1.6736,1.6614,1.6614,1.6613,1.6613,0,1.684,1.6844,1.6864,1.6839,1.6834,1.685,1.6806,1.6807,1.6776,1.6749,1.6762,1.6737,1.6725,1.6729,1.6699,1.6745,1.673,1.6697,1.6648,1.672,1.6741,1.675,1.6621,1.6619,1.6618,1.6617,0,0,1.6973,1.6922,1.693,1.6917,1.6884,1.6886,1.69,1.6887,1.6888,1.6873,1.6881,1.6881,1.6849,1.684,1.6808,1.6823,1.6883,1.6786,1.6785,1.6803,1.6928,1.6952,1.6963,1.6859,1.686,1.6861,1.6929,0,1.7047,1.7065,1.7024,1.7051,1.7053,1.6998,1.7009,1.699,1.6966,1.6964,1.6937,1.6936,1.6896,1.6889,1.6901,1.6873,1.6907,1.6868,1.6864,1.6865,1.6868,1.6974,1.6999,1.7064,1.6938,1.6939,1.694,0,1.7136,1.7123,1.7151,1.7115,1.7114,1.7125,1.7109,1.7109,1.7087,1.7068,1.7058,1.7021,1.703,1.6987,1.6999,1.6973,1.697,1.6956,1.6958,1.6953,1.6904,1.6969,1.7084,1.7093,1.6953,1.6952,1.6951,0,1.7226,1.7217,1.7231,1.7223,1.7182,1.719,1.7174,1.7149,1.7144,1.7132,1.7127,1.7117,1.7111,1.7104,1.7065,1.7037,1.7081,1.7034,1.7064,1.7065,1.7073,1.7072,1.7185,1.7076,1.7076,1.7076,1.7076,0,1.7311,1.7329,1.7271,1.728,1.7299,1.7252,1.7272,1.725,1.7229,1.7232,1.7185,1.719,1.7139,1.7138,1.7108,1.7121,1.712,1.7104,1.7095,1.7106,1.7108,1.71,1.7094,1.7079,1.7078,1.7078,1.7077,0,1.7414,1.7376,1.7387,1.7348,1.7339,1.7354,1.732,1.7326,1.7299,1.7304,1.7303,1.726,1.7256,1.7218,1.7206,1.7185,1.7209,1.7194,1.7216,1.721,1.724,1.7236,1.735,1.7361,1.7249,1.725,1.7251,0,1.7469,1.7481,1.7443,1.7441,1.7427,1.7425,1.742,1.7375,1.7371,1.7346,1.7355,1.7348,1.7338,1.7335,1.7303,1.7293,1.7275,1.7315,1.7273,1.7283,1.7272,1.727,1.727,1.7323,1.7325,1.7326,1.7327,0,1.7569,1.755,1.7543,1.753,1.7524,1.7512,1.7496,1.7498,1.7449,1.7447,1.7442,1.7435,1.7422,1.7414,1.7399,1.7382,1.7346,1.7341,1.7347,1.7356,1.7368,1.7359,1.7237,1.7338,1.7337,1.7336,1.7335,1.7335,1.7647,1.7655,1.7629,1.7622,1.7606,1.7593,1.7596,1.757,1.7564,1.7549,1.7524,1.7523,1.7499,1.7475,1.7461,1.7459,1.7438,1.7447,1.7449,1.7451,1.7455,1.7371,1.7457,1.7456,1.7456,1.7456,1.7455,0,1.7742,1.7723,1.7718,1.7697,1.7692,1.766,1.7641,1.7639,1.7638,1.7619,1.7611,1.7605,1.7597,1.7565,1.7554,1.7558,1.7541,1.7556,1.7554,1.755,1.7476,1.7471,1.757,1.757,1.757,1.757,1.757,1.757,1.7791,1.7801,1.7779,1.7781,1.7762,1.7759,1.7751,1.7738,1.7722,1.7717,1.771,1.7689,1.7665,1.7652,1.7643,1.7634,1.763,1.765,1.7636,1.7567,1.7556,1.7545,1.7539,1.7651,1.7651,1.7709,1.7709,1.771]},{"header":{"parameterUnit":"m.s-1","parameterCategory":1,"la1":30.2991,"la2":30.254,"lo1":-89.0895,"lo2":-89.0444,"dy":0.0017,"dx":0.0017,"nx":28,"ny":28,"refTime":"2023-08-19T09:00:00:Z","depth":0,"parameterNumber":3,"parameterNumberName":"V-component_of_WINDS"},"data":[0,0,0,0,0,0,0,0,0,0,0,0,0,0,0,0,0,0,0,0,0,0,0,0,0,0,0,0,0,0,0,0,0,0,0,0,0,0,0,0,0,0,0,0,0,0,0,0,0,0,0,0,0,0,0,0,0,0,1.7821,1.7821,0,1.7825,1.7825,1.7825,1.7811,1.7811,1.7811,1.781,1.7813,1.7814,1.7814,0,0,0,0,0,0,0,0,0,0,0,0,0,1.7801,1.7801,1.7821,1.7821,1.7821,1.7825,1.7825,1.7825,1.7811,1.7811,1.781,1.781,1.7813,1.7814,1.7814,0,0,0,0,0,0,0,0,0,0,0,0,0,1.7808,1.7801,1.7821,1.7815,1.7814,1.7825,1.7825,1.7825,1.7812,1.7811,1.781,1.781,1.7813,1.7813,1.7814,1.7831,0,0,1.7816,1.7817,0,0,0,0,0,0,0,0,1.7807,1.7808,1.7816,1.7815,1.7815,1.7817,1.7819,1.7827,1.7812,1.7812,1.781,1.7809,1.7815,1.7815,1.7817,1.7831,1.7831,1.7816,1.7817,1.7817,1.7817,0,0,0,0,0,0,0,1.7807,1.7808,1.7822,1.7816,1.7815,1.7812,1.7812,1.782,1.7817,1.7812,1.7811,1.7812,1.7814,1.7817,1.7817,1.7831,1.7816,1.7817,1.7817,1.7818,1.7858,1.7859,0,0,0,0,0,0,1.7807,1.7808,1.7822,1.7823,1.7809,1.7812,1.7813,1.7817,1.7817,1.7816,1.7813,1.7811,1.7816,1.7817,1.7817,1.7836,1.7817,1.7818,1.7818,1.7858,1.7859,1.7859,0,0,0,0,0,0,1.7807,1.7809,1.7822,1.7815,1.7816,1.7813,1.7818,1.7817,1.782,1.7817,1.7816,1.7816,1.7815,1.7816,1.7828,1.7836,1.7818,1.7819,1.7857,1.7858,1.7859,1.7875,0,0,0,0,0,0,1.7806,1.7809,1.7815,1.7815,1.7817,1.7832,1.7819,1.7818,1.7821,1.7819,1.782,1.7819,1.7815,1.7827,1.7828,1.7837,1.7819,1.7856,1.7857,1.7859,1.7874,1.7876,1.7879,0,0,0,0,0,1.7806,1.7819,1.7815,1.7817,1.7825,1.7833,1.7834,1.7829,1.7822,1.7828,1.7826,1.7819,1.7836,1.7828,1.783,1.7839,1.7855,1.7857,1.7858,1.7872,1.7876,1.7879,0,0,0,0,0,0,1.7819,1.7819,1.7815,1.7829,1.7831,1.7831,1.7838,1.7833,1.7837,1.7835,1.7829,1.7829,1.7842,1.7841,1.7833,1.7855,1.7844,1.7846,1.7854,1.7857,1.786,1.7859,1.782,0,0,0,0,0,1.7824,1.7831,1.783,1.7842,1.7844,1.7841,1.7844,1.7841,1.7843,1.7844,1.7843,1.7845,1.785,1.7854,1.7859,1.7874,1.7874,1.7881,1.7884,1.7886,1.7887,1.7895,1.7898,1.7864,1.7864,1.7864,0,0,1.7833,1.7834,1.7838,1.7845,1.7846,1.7854,1.7842,1.785,1.7855,1.7845,1.7855,1.7855,1.7857,1.787,1.7875,1.787,1.7897,1.7888,1.789,1.789,1.7897,1.79,1.7903,1.7865,1.7865,1.7865,0,0,1.7853,1.7855,1.7865,1.7868,1.787,1.7868,1.7871,1.7872,1.7871,1.7882,1.7874,1.7881,1.789,1.7892,1.7894,1.7917,1.791,1.7919,1.7931,1.7939,1.7942,1.7944,1.7951,1.7954,1.792,1.792,1.792,0,1.7864,1.7875,1.7871,1.788,1.7883,1.7875,1.7885,1.7888,1.7891,1.7894,1.7888,1.79,1.7901,1.7914,1.792,1.7922,1.7924,1.7918,1.7942,1.7944,1.7946,1.7953,1.7956,1.7921,1.7921,1.7921,1.7921,0,1.7888,1.7896,1.7904,1.7909,1.7913,1.7923,1.792,1.7925,1.7921,1.792,1.7931,1.7932,1.7937,1.794,1.7936,1.7953,1.7949,1.7943,1.7932,1.795,1.7957,1.796,1.7923,1.7922,1.7922,1.7922,0,0,1.7916,1.7919,1.7922,1.7924,1.7927,1.7933,1.7942,1.7948,1.7952,1.7955,1.7963,1.7972,1.7966,1.7968,1.7965,1.7972,1.7989,1.7964,1.7964,1.7968,1.8007,1.8011,1.8014,1.7986,1.7986,1.7986,1.8006,0,1.7935,1.7951,1.7949,1.7964,1.7971,1.7965,1.7973,1.7975,1.7975,1.7981,1.798,1.7986,1.7979,1.798,1.7987,1.7986,1.7997,1.7984,1.7991,1.7992,1.799,1.8018,1.8022,1.8041,1.8009,1.8009,1.801,0,1.796,1.7965,1.7981,1.7984,1.7987,1.7994,1.7999,1.8005,1.8008,1.8007,1.801,1.8006,1.8015,1.8005,1.8018,1.8009,1.8012,1.8012,1.8013,1.8012,1.8001,1.8017,1.8047,1.8049,1.8014,1.8014,1.8013,0,1.7977,1.7988,1.7999,1.8002,1.8005,1.801,1.8012,1.8014,1.8018,1.8023,1.8025,1.803,1.8033,1.8037,1.8035,1.8028,1.8047,1.8037,1.8046,1.8046,1.8049,1.8049,1.8079,1.8053,1.8053,1.8053,1.8053,0,1.7998,1.8008,1.8007,1.8014,1.8025,1.8022,1.8033,1.8034,1.8037,1.8043,1.8038,1.8045,1.8041,1.8047,1.8045,1.8055,1.8057,1.8056,1.8055,1.8056,1.8056,1.8057,1.8055,1.8054,1.8054,1.8054,1.8053,0,1.8019,1.8018,1.803,1.8033,1.8034,1.8042,1.8044,1.805,1.805,1.8059,1.806,1.806,1.8067,1.8065,1.8072,1.8071,1.8084,1.8082,1.8083,1.8082,1.8091,1.8089,1.8121,1.8125,1.8098,1.8098,1.8098,0,1.8032,1.8039,1.8043,1.8048,1.805,1.8057,1.8061,1.8059,1.8064,1.8068,1.8074,1.8081,1.8085,1.8097,1.8097,1.8102,1.81,1.8111,1.81,1.8101,1.8099,1.8098,1.8099,1.8112,1.8112,1.8113,1.8113,0,1.8054,1.8054,1.806,1.8067,1.8072,1.8077,1.8081,1.8085,1.8084,1.8089,1.8096,1.81,1.8108,1.8115,1.812,1.8121,1.8117,1.8116,1.8119,1.8119,1.8119,1.8118,1.8087,1.8115,1.8115,1.8115,1.8115,1.8115,1.8071,1.8077,1.8081,1.8089,1.8092,1.8097,1.8103,1.8104,1.811,1.8117,1.8115,1.8124,1.8127,1.8134,1.8136,1.8142,1.8138,1.8141,1.8142,1.8143,1.8143,1.8119,1.8143,1.8143,1.8143,1.8143,1.8143,0,1.8093,1.8095,1.8102,1.8109,1.8115,1.8111,1.8116,1.8121,1.8129,1.8133,1.8138,1.8147,1.8153,1.8154,1.816,1.8165,1.8163,1.8167,1.8165,1.8166,1.8147,1.8144,1.8168,1.8168,1.8168,1.8168,1.8168,1.8168,1.8104,1.8116,1.8116,1.8129,1.8131,1.814,1.8143,1.8147,1.815,1.816,1.8166,1.8167,1.817,1.8176,1.8182,1.8182,1.8184,1.8188,1.8187,1.817,1.8167,1.8165,1.8162,1.8189,1.8189,1.8205,1.8206,1.8206]}]]